Tracking 25710 objects as of 6-Jul-2022
HD Live streaming from Space Station
objects crossing your sky now

FENGYUN 1C DEB

Track FENGYUN 1C DEB now!
10-day predictions


NORAD ID: 32363
Int'l Code: 1999-025CZG
Perigee: 492.9 km
Apogee: 791.3 km
Inclination: 98.4 °
Period: 97.4 minutes
Semi major axis: 7013 km
RCS: 0.013 m2 (small)
Launch date: May 10, 1999
Source: People's Republic of China (PRC)
Launch site: Taiyaun Space Center, China (TSC)

Note: This is SATELLITE DEBRIS
aabbcc
Your satellite tracking list
Your tracking list is empty




NASA's NSSDC Master Catalog

Two Line Element Set (TLE):
1 32363U 99025CZG 22186.05356075  .00002606  00000-0  25291-3 0  9998
2 32363  98.4375  37.1377 0212763 334.1500  24.9197 14.78211648779883
Source of the keplerian elements: AFSPC